�������l�o���
Date,Time,MP-1(��Sv/h),MP-2(��Sv/h),MP-3(��Sv/h),MP-4(��Sv/h),MP-5(��Sv/h),MP-6(��Sv/h),MP-7(��Sv/h),MP-8(��Sv/h),����,����(m/s),���J
2017/02/16,00:00,1.046,1.762,1.168,2.026,1.416,0.554,1.016,0.943,��,2.9,��
2017/02/16,00:10,1.048,1.762,1.170,2.025,1.411,0.554,1.015,0.944,��,2.8,��
2017/02/16,00:20,1.046,1.763,1.167,2.024,1.413,0.554,1.015,0.943,��,2.3,��
2017/02/16,00:30,1.046,1.759,1.167,2.025,1.416,0.553,1.015,0.943,���쐼,3.0,��
2017/02/16,00:40,1.046,1.760,1.169,2.023,1.411,0.554,1.016,0.944,��,3.9,��
2017/02/16,00:50,1.045,1.763,1.167,2.026,1.412,0.553,1.016,0.944,��,4.0,��
2017/02/16,01:00,1.046,1.764,1.170,2.027,1.412,0.554,1.018,0.943,��,3.5,��
2017/02/16,01:10,1.047,1.762,1.169,2.027,1.412,0.555,1.016,0.943,��,3.3,��
2017/02/16,01:20,1.048,1.760,1.167,2.026,1.415,0.553,1.016,0.944,��,4.8,��
2017/02/16,01:30,1.047,1.763,1.170,2.027,1.415,0.552,1.017,0.945,��,5.8,��
2017/02/16,01:40,1.048,1.762,1.172,2.023,1.411,0.552,1.015,0.945,���k��,5.7,��
2017/02/16,01:50,1.047,1.761,1.168,2.025,1.414,0.555,1.015,0.944,���k��,5.1,��
2017/02/16,02:00,1.047,1.758,1.171,2.026,1.414,0.552,1.017,0.943,��,4.8,��
2017/02/16,02:10,1.046,1.761,1.167,2.026,1.414,0.554,1.016,0.942,��,5.1,��
2017/02/16,02:20,1.046,1.760,1.170,2.028,1.411,0.554,1.014,0.945,��,4.9,��
2017/02/16,02:30,1.046,1.759,1.169,2.027,1.412,0.553,1.018,0.943,���k��,5.7,��
2017/02/16,02:40,1.048,1.758,1.168,2.023,1.411,0.553,1.016,0.943,��,5.7,��
2017/02/16,02:50,1.047,1.761,1.170,2.025,1.411,0.554,1.017,0.945,��,6.1,��
2017/02/16,03:00,1.047,1.762,1.169,2.024,1.413,0.553,1.014,0.943,��,5.4,��
2017/02/16,03:10,1.046,1.759,1.170,2.026,1.410,0.554,1.017,0.943,��,3.9,��
2017/02/16,03:20,1.047,1.759,1.171,2.025,1.413,0.554,1.016,0.943,���k��,3.4,��
2017/02/16,03:30,1.044,1.761,1.170,2.026,1.411,0.554,1.016,0.943,���k��,3.2,��
2017/02/16,03:40,1.046,1.758,1.168,2.025,1.409,0.553,1.015,0.942,���k��,6.8,��
2017/02/16,03:50,1.047,1.759,1.170,2.025,1.410,0.552,1.016,0.943,���k��,6.7,��
2017/02/16,04:00,1.048,1.761,1.166,2.026,1.412,0.553,1.016,0.943,���k��,6.6,��
2017/02/16,04:10,1.045,1.759,1.169,2.028,1.410,0.552,1.017,0.945,��,6.1,��
2017/02/16,04:20,1.049,1.759,1.168,2.028,1.411,0.554,1.013,0.944,��,7.6,��
2017/02/16,04:30,1.046,1.760,1.169,2.026,1.410,0.555,1.016,0.943,��,6.5,��
2017/02/16,04:40,1.047,1.761,1.169,2.026,1.410,0.553,1.015,0.944,��,5.4,��
2017/02/16,04:50,1.048,1.760,1.169,2.023,1.413,0.555,1.016,0.943,��,4.0,��
2017/02/16,05:00,1.047,1.760,1.170,2.025,1.409,0.554,1.017,0.943,��,3.8,��
2017/02/16,05:10,1.048,1.760,1.169,2.025,1.410,0.554,1.017,0.943,��,4.9,��
2017/02/16,05:20,1.045,1.758,1.170,2.022,1.412,0.553,1.017,0.942,��,5.1,��
2017/02/16,05:30,1.047,1.759,1.170,2.025,1.410,0.554,1.017,0.946,��,4.8,��
2017/02/16,05:40,1.048,1.759,1.169,2.024,1.413,0.554,1.015,0.946,��,4.0,��
2017/02/16,05:50,1.047,1.757,1.168,2.027,1.411,0.555,1.014,0.944,���k��,5.1,��
2017/02/16,06:00,1.047,1.758,1.169,2.024,1.410,0.555,1.015,0.944,��,6.5,��
2017/02/16,06:10,1.046,1.762,1.170,2.024,1.409,0.553,1.015,0.944,��,6.2,��
2017/02/16,06:20,1.047,1.760,1.168,2.027,1.410,0.553,1.014,0.944,���쐼,5.6,��
2017/02/16,06:30,1.047,1.763,1.168,2.027,1.412,0.553,1.015,0.945,���쐼,4.8,��
2017/02/16,06:40,1.048,1.757,1.166,2.027,1.410,0.552,1.016,0.946,���쐼,4.3,��
2017/02/16,06:50,1.046,1.757,1.167,2.026,1.412,0.552,1.016,0.943,���쐼,3.9,��
2017/02/16,07:00,1.048,1.757,1.169,2.023,1.411,0.554,1.014,0.944,���쐼,4.6,��
2017/02/16,07:10,1.046,1.760,1.167,2.024,1.411,0.552,1.014,0.945,��,4.5,��
2017/02/16,07:20,1.048,1.761,1.168,2.028,1.412,0.553,1.016,0.944,���k��,4.1,��
2017/02/16,07:30,1.047,1.762,1.169,2.024,1.412,0.554,1.015,0.945,���k��,5.7,��
2017/02/16,07:40,1.047,1.755,1.169,2.027,1.409,0.554,1.017,0.946,���k��,4.3,��
2017/02/16,07:50,1.047,1.761,1.170,2.024,1.411,0.554,1.018,0.945,���k��,3.2,��
2017/02/16,08:00,1.047,1.760,1.167,2.031,1.409,0.554,1.017,0.944,���k��,3.7,��
2017/02/16,08:10,1.050,1.756,1.169,2.027,1.414,0.555,1.017,0.943,��,2.8,��
2017/02/16,08:20,1.049,1.762,1.170,2.026,1.413,0.556,1.018,0.945,�쐼,2.8,��
2017/02/16,08:30,1.051,1.761,1.170,2.028,1.412,0.554,1.017,0.943,��,4.7,��
2017/02/16,08:40,1.049,1.760,1.172,2.028,1.414,0.556,1.018,0.947,��쓌,2.9,��
2017/02/16,08:50,1.050,1.762,1.172,2.031,1.412,0.555,1.019,0.946,��쓌,3.8,��
2017/02/16,09:00,1.052,1.762,1.170,2.028,1.414,0.555,1.018,0.946,��,3.0,��
2017/02/16,09:10,1.051,1.759,1.171,2.028,1.413,0.555,1.020,0.946,��,3.3,��
2017/02/16,09:20,1.054,1.762,1.172,2.030,1.415,0.554,1.020,0.948,��,3.6,��
2017/02/16,09:30,1.052,1.762,1.175,2.029,1.416,0.556,1.017,0.946,��,4.7,��
2017/02/16,09:40,1.055,1.760,1.173,2.030,1.416,0.558,1.020,0.947,��,5.9,��
2017/02/16,09:50,1.054,1.764,1.174,2.030,1.415,0.559,1.018,0.945,��쓌,6.2,��
2017/02/16,10:00,1.053,1.764,1.174,2.031,1.418,0.557,1.016,0.946,��쓌,5.8,��
2017/02/16,10:10,1.053,1.760,1.176,2.031,1.417,0.558,1.018,0.946,��쓌,5.7,��
2017/02/16,10:20,1.054,1.760,1.176,2.033,1.418,0.557,1.017,0.947,��쓌,4.7,��
2017/02/16,10:30,1.056,1.763,1.175,2.030,1.417,0.557,1.019,0.948,��쓌,7.4,��
2017/02/16,10:40,1.054,1.763,1.176,2.034,1.417,0.559,1.017,0.945,��,7.8,��
2017/02/16,10:50,1.054,1.763,1.173,2.033,1.417,0.558,1.018,0.948,��쓌,9.3,��
2017/02/16,11:00,1.055,1.766,1.176,2.034,1.418,0.559,1.017,0.948,��쓌,8.6,��
2017/02/16,11:10,1.056,1.762,1.178,2.035,1.419,0.558,1.018,0.946,��쓌,9.4,��
2017/02/16,11:20,1.058,1.764,1.178,2.036,1.418,0.559,1.018,0.947,��쓌,8.2,��
2017/02/16,11:30,1.058,1.762,1.178,2.032,1.420,0.560,1.020,0.949,��쓌,9.8,��
2017/02/16,11:40,1.057,1.763,1.179,2.030,1.418,0.558,1.018,0.948,��쓌,8.8,��
2017/02/16,11:50,1.056,1.766,1.179,2.034,1.420,0.558,1.020,0.948,��쓌,9.0,��
2017/02/16,12:00,1.059,1.765,1.178,2.035,1.418,0.558,1.018,0.947,��쓌,9.9,��
2017/02/16,12:10,1.057,1.768,1.179,2.037,1.422,0.561,1.019,0.946,��쓌,10.2,��
2017/02/16,12:20,1.060,1.768,1.179,2.036,1.420,0.560,1.020,0.948,��쓌,8.2,��
2017/02/16,12:30,1.059,1.769,1.181,2.034,1.419,0.561,1.020,0.949,��쓌,9.9,��
2017/02/16,12:40,1.060,1.765,1.179,2.039,1.419,0.561,1.021,0.947,��쓌,10.7,��
2017/02/16,12:50,1.058,1.769,1.180,2.040,1.420,0.562,1.020,0.950,��쓌,9.8,��
2017/02/16,13:00,1.058,1.768,1.178,2.038,1.420,0.562,1.021,0.949,��쓌,10.8,��
2017/02/16,13:10,1.056,1.766,1.177,2.036,1.421,0.563,1.021,0.949,��쓌,10.8,��
2017/02/16,13:20,1.055,1.768,1.180,2.038,1.421,0.562,1.019,0.948,��쓌,11.9,��
2017/02/16,13:30,1.059,1.770,1.181,2.037,1.422,0.562,1.019,0.946,��쓌,11.0,��
2017/02/16,13:40,1.059,1.769,1.180,2.037,1.422,0.562,1.020,0.945,��쓌,9.9,��
2017/02/16,13:50,1.058,1.770,1.179,2.039,1.422,0.563,1.019,0.946,��쓌,9.5,��
2017/02/16,14:00,1.059,1.769,1.180,2.038,1.422,0.563,1.019,0.947,��쓌,7.1,��
2017/02/16,14:10,1.059,1.773,1.179,2.037,1.422,0.563,1.020,0.943,��쓌,5.8,��
2017/02/16,14:20,1.057,1.774,1.176,2.037,1.424,0.561,1.021,0.947,��,6.9,��
2017/02/16,14:30,1.059,1.775,1.175,2.040,1.421,0.563,1.019,0.946,��,7.3,��
2017/02/16,14:40,1.058,1.773,1.177,2.038,1.423,0.561,1.021,0.945,��쓌,8.6,��
2017/02/16,14:50,1.059,1.773,1.175,2.040,1.424,0.562,1.022,0.945,��쓌,7.6,��
2017/02/16,15:00,1.059,1.772,1.177,2.037,1.423,0.564,1.022,0.947,��,5.7,��
2017/02/16,15:10,1.060,1.772,1.177,2.037,1.424,0.564,1.023,0.946,��,6.8,��
2017/02/16,15:20,1.062,1.773,1.175,2.039,1.424,0.560,1.020,0.947,��쓌,7.6,��
2017/02/16,15:30,1.061,1.776,1.177,2.040,1.423,0.562,1.020,0.945,��,7.1,��
2017/02/16,15:40,1.059,1.775,1.176,2.041,1.424,0.564,1.023,0.947,��,5.9,��
2017/02/16,15:50,1.058,1.775,1.175,2.037,1.424,0.562,1.023,0.947,��,7.0,��
2017/02/16,16:00,1.059,1.780,1.176,2.040,1.423,0.563,1.021,0.947,��,6.2,��
2017/02/16,16:10,1.059,1.777,1.174,2.036,1.425,0.560,1.023,0.948,��,8.2,��
2017/02/16,16:20,1.060,1.778,1.177,2.038,1.422,0.563,1.021,0.949,��,9.1,��
2017/02/16,16:30,1.060,1.776,1.178,2.034,1.424,0.563,1.023,0.949,��,7.9,��
2017/02/16,16:40,1.058,1.782,1.177,2.038,1.421,0.562,1.022,0.949,��,7.1,��
2017/02/16,16:50,1.061,1.778,1.177,2.039,1.421,0.562,1.023,0.949,��,6.2,��
2017/02/16,17:00,1.062,1.778,1.177,2.038,1.423,0.563,1.024,0.949,��,7.3,��
2017/02/16,17:10,1.062,1.779,1.175,2.035,1.423,0.560,1.021,0.947,��,8.8,��
2017/02/16,17:20,1.064,1.776,1.176,2.039,1.425,0.560,1.021,0.949,��,10.2,��
2017/02/16,17:30,1.061,1.777,1.176,2.037,1.427,0.562,1.022,0.950,��,10.3,��
2017/02/16,17:40,1.060,1.778,1.176,2.037,1.426,0.562,1.023,0.948,��,9.5,��
2017/02/16,17:50,1.063,1.778,1.175,2.035,1.426,0.560,1.025,0.948,��,8.9,��
2017/02/16,18:00,1.062,1.776,1.174,2.037,1.424,0.561,1.024,0.949,��쐼,8.1,��
2017/02/16,18:10,1.061,1.777,1.174,2.036,1.425,0.561,1.025,0.947,��쐼,7.3,��
2017/02/16,18:20,1.063,1.774,1.175,2.034,1.424,0.560,1.020,0.945,��쐼,7.0,��
2017/02/16,18:30,1.060,1.777,1.175,2.037,1.423,0.562,1.022,0.950,��쐼,6.7,��
2017/02/16,18:40,1.062,1.774,1.177,2.035,1.424,0.559,1.022,0.947,��쐼,7.3,��
2017/02/16,18:50,1.060,1.775,1.175,2.036,1.423,0.561,1.022,0.948,�쐼,7.9,��
2017/02/16,19:00,1.061,1.775,1.175,2.036,1.424,0.558,1.020,0.946,��쐼,9.1,��
2017/02/16,19:10,1.062,1.776,1.175,2.037,1.426,0.560,1.020,0.948,��쐼,8.7,��
2017/02/16,19:20,1.059,1.774,1.176,2.038,1.424,0.561,1.020,0.946,��쐼,7.7,��
2017/02/16,19:30,1.060,1.775,1.174,2.034,1.427,0.561,1.021,0.946,��쐼,8.0,��
2017/02/16,19:40,1.061,1.774,1.176,2.035,1.426,0.561,1.022,0.948,��쐼,8.0,��
2017/02/16,19:50,1.062,1.774,1.173,2.038,1.424,0.560,1.024,0.947,�쐼,8.0,��
2017/02/16,20:00,1.062,1.774,1.176,2.037,1.424,0.558,1.022,0.947,�쐼,8.3,��
2017/02/16,20:10,1.059,1.772,1.174,2.034,1.425,0.559,1.022,0.949,�쐼,7.5,��
2017/02/16,20:20,1.054,1.772,1.174,2.036,1.425,0.561,1.022,0.949,�쐼,7.3,��
2017/02/16,20:30,1.058,1.771,1.173,2.037,1.424,0.559,1.021,0.947,��쐼,7.4,��
2017/02/16,20:40,1.060,1.775,1.176,2.035,1.424,0.561,1.022,0.948,��쐼,6.2,��
2017/02/16,20:50,1.058,1.772,1.175,2.035,1.425,0.559,1.021,0.946,��쐼,5.9,��
2017/02/16,21:00,1.057,1.772,1.174,2.035,1.424,0.559,1.019,0.947,��쐼,6.2,��
2017/02/16,21:10,1.059,1.773,1.175,2.034,1.423,0.558,1.021,0.947,��쐼,7.4,��
2017/02/16,21:20,1.058,1.773,1.178,2.035,1.425,0.559,1.019,0.947,��쐼,7.8,��
2017/02/16,21:30,1.059,1.771,1.176,2.036,1.424,0.560,1.021,0.947,��쐼,8.5,��
2017/02/16,21:40,1.060,1.771,1.175,2.036,1.425,0.558,1.021,0.947,��쐼,7.5,��
2017/02/16,21:50,1.059,1.773,1.173,2.034,1.424,0.558,1.020,0.947,��쐼,6.9,��
2017/02/16,22:00,1.058,1.773,1.175,2.037,1.426,0.560,1.020,0.948,��쐼,6.8,��
2017/02/16,22:10,1.060,1.773,1.175,2.035,1.426,0.559,1.019,0.946,�쐼,8.0,��
2017/02/16,22:20,1.057,1.772,1.175,2.035,1.425,0.559,1.023,0.947,��쐼,7.2,��
2017/02/16,22:30,1.058,1.773,1.174,2.034,1.425,0.559,1.021,0.947,��쐼,6.9,��
2017/02/16,22:40,1.056,1.774,1.175,2.036,1.426,0.560,1.021,0.949,��쐼,9.0,��
2017/02/16,22:50,1.059,1.772,1.177,2.033,1.428,0.559,1.022,0.949,��쐼,9.4,��
2017/02/16,23:00,1.061,1.772,1.175,2.037,1.425,0.559,1.021,0.947,��쐼,10.8,��
2017/02/16,23:10,1.058,1.773,1.176,2.037,1.428,0.560,1.024,0.947,�쐼,11.9,��
2017/02/16,23:20,1.060,1.774,1.174,2.035,1.428,0.558,1.022,0.946,�쐼,11.1,��
2017/02/16,23:30,1.060,1.778,1.173,2.037,1.427,0.560,1.023,0.948,�쐼,11.8,��
2017/02/16,23:40,1.059,1.774,1.177,2.039,1.425,0.560,1.024,0.950,�쐼,11.0,��
2017/02/16,23:50,1.058,1.774,1.176,2.037,1.427,0.560,1.022,0.950,�쐼,9.7,��
